Tracking 25744 objects as of 25-Jun-2022
HD Live streaming from Space Station
objects crossing your sky now

SOLRAD 7B

Track SOLRAD 7B now!
10-day predictions
SOLRAD 7B is classified as:


NORAD ID: 1291
Int'l Code: 1965-016D
Perigee: 902.7 km
Apogee: 936.4 km
Inclination: 70.1 °
Period: 103.3 minutes
Semi major axis: 7290 km
RCS: 0.5012 m2 (medium)
Launch date: March 9, 1965
Source: United States (US)
Launch site: AIR FORCE WESTERN TEST RANGE (AFWTR)
aabbcc
Your satellite tracking list
Your tracking list is empty




NASA's NSSDC Master Catalog

Two Line Element Set (TLE):
1 01291U 65016D   22175.48103996 -.00000017  00000-0  26139-4 0  9992
2 01291  70.0800  86.0148 0023151 233.2250 126.6730 13.94641856914035
Source of the keplerian elements: AFSPC